1398124826702,113.949
1398124886702,112.957
1398124946702,113.837
1398125006702,113.395
1398125066702,113.425
1398125126702,113.374
1398125186702,113.332
1398125246702,112.955
1398125306702,113.405
1398125366702,113.502
1398125426702,113.265
1398125486702,113.105
1398125546702,114.054
1398125606702,113.294
1398125666702,113.208
1398125726702,113.724
1398125786702,113.495
1398125846702,113.297
1398125906702,113.710
1398125966702,113.541
1398126026702,112.962
1398126086702,113.547
1398126146702,113.481
1398126206702,113.396
1398126266702,113.201
1398126326702,112.953
1398126386702,113.263
1398126446702,113.761
1398126506702,114.075
1398126566702,113.635
1398126626702,113.293
1398126686702,113.535
1398126746702,113.144
1398126806702,113.410
1398126866702,113.812
1398126926702,113.133
1398126986702,113.331
1398127046702,112.962
1398127106702,113.121
1398127166702,113.154
1398127226702,113.314
1398127286702,112.938
1398127346702,112.625
1398127406702,112.868
1398127466702,113.040
1398127526702,113.092
1398127586702,112.662
1398127646702,113.215
1398127706702,112.942
1398127766702,112.209
1398127826702,112.708
1398127886702,113.190
1398127946702,112.545
1398128006702,112.168
1398128066702,112.497
1398128126702,112.516
1398128186702,112.473
1398128246702,113.153
1398128306702,112.362
1398128366702,112.336
1398128426713,112.538
1398128486713,112.420
1398128546713,112.626
1398128606713,112.931
1398128666713,112.650
1398128726713,112.218
1398128786713,112.277
1398128846713,112.637
1398128906713,112.651
1398128966713,112.128
1398129026713,112.073
1398129086713,112.524
1398129146713,112.937
1398129206713,112.982
1398129266713,112.264
1398129326713,112.369
1398129386713,112.030
1398129446713,112.441
1398129506713,112.580
1398129566713,111.762
1398129626713,112.102
1398129686713,112.764
1398129746713,111.960
1398129806713,112.570
1398129866713,112.591
1398129926713,112.056
1398129986713,112.838
1398130046713,112.522
1398130106713,112.653
1398130166713,112.578
1398130226713,113.240
1398130286713,112.539
1398130346713,112.106
1398130406713,112.379
1398130466713,112.382
1398130526713,112.448
1398130586713,113.035
1398130646713,112.369
1398130706713,112.515
1398130766713,112.560
1398130826713,112.437
1398130886713,112.202
1398130946713,112.218
1398131006713,111.912
1398131066713,112.340
1398131126713,112.656
1398131186713,112.580
1398131246713,112.777
1398131306713,112.540
1398131366713,112.875
1398131426713,112.366
1398131486713,112.636
1398131546713,112.656
1398131606713,112.170
1398131666713,112.676
1398131726713,112.518
1398131786713,112.990
1398131846713,112.310
1398131906713,112.970
1398131966713,112.844
1398132026723,112.558
1398132086723,112.477
1398132146723,112.681
1398132206723,112.462
1398132266723,112.115
1398132326723,112.706
1398132386723,112.283
1398132446724,112.561
1398132506724,112.407
1398132566723,112.287
1398132626723,112.292
1398132686723,112.008
1398132746723,112.765
1398132806723,111.825
1398132866723,112.774
1398132926723,112.171
1398132986723,112.213
1398133046723,112.471
1398133106723,112.378
1398133166723,112.381
1398133226723,112.729
1398133286723,112.199
1398133346723,112.176
1398133406723,112.981
1398133466723,112.566
1398133526723,112.317
1398133586723,111.768
1398133646723,112.151
1398133706723,112.473
1398133766723,112.287
1398133826724,112.254
1398133886723,112.204
1398133946723,112.466
1398134006723,112.121
1398134066723,111.592
1398134126723,112.337
1398134186723,111.744
1398134246723,112.414
1398134306723,112.028
1398134366723,112.209
1398134426723,111.823
1398134486723,111.825
1398134546723,112.337
1398134606723,112.278
1398134666723,111.801
1398134726723,112.047
1398134786723,112.492
1398134846723,112.301
1398134906723,112.274
1398134966723,112.046
1398135026723,112.119
1398135086723,112.110
1398135146724,111.495
1398135206724,112.023
1398135266723,111.331
1398135326723,111.558
1398135386723,111.583
1398135446723,112.306
1398135506723,111.915
1398135566723,111.750
1398135626734,111.093
1398135686734,111.548
1398135746734,112.009
1398135806734,112.012
1398135866734,111.774
1398135926734,111.795
1398135986734,111.095
1398136046734,111.948
1398136106734,111.397
1398136166734,111.040
1398136226734,111.502
1398136286734,111.039
1398136826734,110.715
1398136886734,111.175
1398136946734,111.245
1398137006734,111.207
1398137066734,111.213
1398137126734,111.637
1398137186734,111.071
1398137246734,111.078
1398137306734,110.918
1398137366734,111.014
1398137426734,111.077
1398137486734,110.938
1398137546734,111.126
1398137606734,111.306
1398137666734,110.869
1398137726734,110.840
1398137786734,110.960
1398137846734,110.705
1398137906734,111.186
1398137966734,110.914
1398138026734,110.776
1398138086734,110.722
1398138146734,111.007
1398138206734,111.076
1398138266734,110.993
1398138326734,111.008
1398138386734,110.540
1398138446734,111.270
1398138506734,111.002
1398138566734,110.858
1398138626734,110.868
1398138686734,110.247
1398138746734,110.927
1398138806734,111.052
1398138866734,110.923
1398138926734,110.751
1398138986734,110.256
1398139046734,110.817
1398139106734,110.289
1398139166734,110.392
1398139226744,110.573
1398139286744,110.669
1398139346744,111.191
1398139406744,110.503
1398139466744,110.420
1398139526744,110.903
1398139586744,110.772
1398139646744,110.700
1398139706744,110.371
1398139766744,110.316
1398139826744,110.479
1398139886744,110.156
1398139946744,110.978
1398140006744,110.707
1398140066744,110.868
1398140126744,110.777
1398140186744,110.847
1398140246744,110.165
1398140306744,110.666
1398140366744,110.668
1398140426744,110.249
1398140486744,110.282
1398140546744,110.934
1398140606744,110.341
1398140666744,110.856
1398140726744,110.731
1398140786744,111.245
1398140846744,111.144
1398140906744,110.867
1398140966744,110.418
1398141026744,110.856
1398141086744,110.970
1398141146744,110.977
1398141206744,111.090
1398141266744,110.614
1398141326744,111.310
1398141386744,110.927
1398141446744,110.501
1398141506744,110.596
1398141566744,111.335
1398141626744,111.072
1398141686744,111.293
1398141746744,110.968
1398141806744,111.036
1398141866744,111.149
1398141926744,110.808
1398141986744,110.976
1398142046744,111.183
1398142106744,111.063
1398142166744,110.860
1398142226744,110.992
1398142286744,110.703
1398142346744,111.241
1398142406744,111.524
1398142466744,110.769
1398142526744,111.151
1398142586744,110.947
1398142646744,110.684
1398142706744,111.408
1398142766744,111.550
1398142826754,110.809
1398142886754,110.909
1398142946754,111.281
1398143006754,111.491
1398143066754,110.941
1398143126754,110.749
1398143186754,111.313
1398143246754,110.574
1398143306754,110.779
1398143366754,111.186
1398143426754,111.294
1398143486754,111.062
1398143546754,110.941
1398143606754,110.381
1398143666754,111.129
1398143726754,110.271
1398143786754,111.255
1398143846754,110.782
1398143906754,110.738
1398143966754,110.909
1398144026754,111.212
1398144086754,111.259
1398144146754,110.510
1398144206754,110.661
1398144266754,110.814
1398144326754,111.198
1398144386754,110.977
1398144446754,110.831
1398144506754,111.179
1398144566754,111.558
1398144626754,111.212
1398144686754,111.046
1398144746754,111.008
1398144806754,111.569
1398144866754,111.816
1398144926754,111.263
1398144986754,110.919
1398145046754,110.788
1398145106754,111.056
1398145166754,110.879
1398145226754,111.099
1398145286754,110.975
1398145346754,110.749
1398145406754,110.416
1398145466754,110.347
1398145526754,111.015
1398145586754,110.630
1398145646754,110.891
1398145706754,110.985
1398145766754,110.012
1398145826754,110.805
1398145886754,110.691
1398145946754,110.089
1398146006754,110.400
1398146066754,110.187
1398146126754,110.298
1398146186754,110.511
1398146246754,110.089
1398146306754,110.612
1398146366754,110.791
1398146426764,110.713
1398146486764,110.094
1398146546764,110.548
1398146606764,110.136
1398146666764,109.848
1398146726764,110.819
1398146786764,110.145
1398146846764,110.330
1398146906764,110.265
1398146966764,109.995
1398147026764,109.728
1398147086764,109.985
1398147146764,110.141
1398147206764,110.425
1398147266764,110.109
1398147326764,109.802
1398147386764,109.981
1398147446764,109.891
1398147506764,109.724
1398147566764,110.303
1398147626764,110.124
1398147686764,110.351
1398147746764,110.273
1398147806764,110.238
1398147866764,109.650
1398147926764,109.959
1398147986764,110.567
1398148046764,109.723
1398148106764,110.346
1398148166764,110.075
1398148226764,109.620
1398148286764,110.373
1398148346764,109.970
1398148406764,110.029
1398148466764,109.788
1398148526764,110.102
1398148586764,110.262
1398148646764,110.080
1398148706764,109.919
1398148766764,109.690
1398148826764,109.914
1398148886764,110.104
1398148946764,109.955
1398149006764,109.924
1398149066764,110.516
1398149126764,110.452
1398149186764,109.877
1398149246764,110.588
1398149306764,109.985
1398149366764,110.495
1398149426764,110.156
1398149486764,110.023
1398149546764,110.719
1398149606764,109.999
1398149666764,109.894
1398149726764,109.824
1398149786764,110.177
1398149846764,110.473
1398149906764,110.166
1398149966764,110.140
1398150026774,111.089
1398150086774,109.932
1398150146774,110.430
1398150206774,110.639
1398150266774,110.243
1398150326774,110.054
1398150386774,110.299
1398150446774,110.697
1398150506774,110.166
1398150566774,111.049
1398150626774,110.471
1398150686774,110.478
1398150746774,110.284
1398150806774,110.455
1398150866774,110.788
1398150926774,110.444
1398150986774,110.602
1398151046774,110.245
1398151106774,110.311
1398151166774,110.243
1398151226774,110.551
1398151286774,110.456
1398151346774,110.413
1398151406774,110.105
1398151466774,109.813
1398151526774,110.554
1398151586774,110.271
1398151646774,110.463
1398151706774,110.594
1398151766774,109.760
1398151826774,110.097
1398151886774,110.645
1398151946774,110.314
1398152006774,110.793
1398152066774,110.140
1398152126774,110.361
1398152186774,110.234
1398152246774,110.174
1398152306774,110.539
1398152366774,110.412
1398152426774,110.402
1398152486774,109.768
1398152546774,109.647
1398152606774,109.900
1398152666774,110.522
1398152726774,110.417
1398152786774,110.248
1398152846774,110.188
1398152906774,110.265
1398152966774,110.539
1398153026774,109.900
1398153086774,110.555
1398153146774,110.442
1398153206774,109.812
1398153266774,110.482
1398153326774,110.181
1398153386774,110.528
1398153446774,110.660
1398153506774,110.224
1398153566774,110.471
1398153626784,110.656
1398153686784,110.709
1398153746784,110.398
1398153806784,110.604
1398153866784,110.464
1398153926784,110.808
1398153986784,110.262
1398154046784,110.519
1398154106784,110.154
1398154166784,109.910
1398154226784,110.146
1398154286784,110.503
1398154346784,110.351
1398154406784,110.462
1398154466784,110.402
1398154526784,110.100
1398154586784,110.499
1398154646784,109.877
1398154706784,110.221
1398154766784,110.058
1398154826784,110.214
1398154886784,110.165
1398154946784,110.342
1398155006784,110.176
1398155066784,109.900
1398155126784,110.148
1398155186784,110.211
1398155246784,110.223
1398155306784,110.027
1398155366784,110.314
1398155426784,110.103
1398155486784,109.791
1398155546784,110.496
1398155606784,109.957
1398155666784,110.116
1398155726784,110.304
1398155786784,110.298
1398155846784,110.179
1398155906784,109.812
1398155966784,110.302
1398156026784,110.035
1398156086784,109.461
1398156146784,109.802
1398156206784,110.103
1398156266784,110.416
1398156326784,110.031
1398156386784,110.021
1398156446784,110.605
1398156506784,110.741
1398156566784,110.374
1398156626784,110.270
1398156686784,110.323
1398156746784,110.527
1398156806784,110.366
1398156866784,109.553
1398156926784,110.133
1398156986784,110.245
1398157046784,110.546
1398157106784,110.221
1398157166784,110.134
1398157226794,109.957
1398157286794,110.256
1398157346794,109.823
1398157406794,109.863
1398157466794,109.819
1398157526794,110.536
1398157586794,110.014
1398157646794,110.277
1398157706794,110.019
1398157766794,109.875
1398157826794,109.725
1398157886794,110.021
1398157946794,110.337
1398158006794,110.179
1398158066794,110.153
1398158126794,109.731
1398158186794,109.463
1398158246794,110.246
1398158306794,109.878
1398158366794,110.186
1398158426794,110.214
1398158486794,110.142
1398158546794,110.061
1398158606794,110.267
1398158666794,110.164
1398158726794,109.567
1398158786794,110.222
1398158846794,110.715
1398158906794,109.807
1398158966794,110.057
1398159026794,109.509
1398159086794,109.864
1398159146794,110.039
1398159206794,110.397
1398159266794,110.555
1398159326794,110.357
1398159386794,110.449
1398159446794,109.408
1398159506794,110.027
1398159566794,109.888
1398159626794,110.529
1398159686794,110.332
1398159746794,110.675
1398159806794,110.080
1398159866794,110.184
1398159926794,110.069
1398159986794,110.716
1398160046794,110.056
1398160106794,110.049
1398160166794,110.146
1398160226794,110.220
1398160286794,110.101
1398160346794,110.329
1398160406794,110.372
1398160466794,109.864
1398160526794,110.129
1398160586794,110.076
1398160646794,109.911
1398160706794,110.006
1398160766794,110.110
1398160826803,109.547
1398160886803,110.096
1398160946803,109.497
1398161006803,109.839
1398161066803,110.349
1398161126803,110.297
1398161186803,110.112
1398161246803,110.262
1398161306803,109.775
1398161366803,109.632
1398161426803,109.423
1398161486803,109.786
1398161546803,109.834
1398161606803,109.594
1398161666803,109.457
1398161726803,110.076
1398161786803,109.715
1398161846803,109.649
1398161906803,109.449
1398161966803,109.709
1398162026803,109.559
1398162086803,109.964
1398162146803,109.749
1398162206803,109.270
1398162266803,109.659
1398162326803,109.418
1398162386803,109.606
1398162446803,109.387
1398162506803,109.766
1398162566803,109.251
1398162626803,109.485
1398162686803,109.800
1398162746803,109.523
1398162806803,109.076
1398162866803,109.234
1398162926803,109.186
1398162986803,109.716
1398163046803,109.019
1398163106803,109.116
1398163166803,109.673
1398163226803,109.409
1398163286803,109.470
1398163346803,108.904
1398163406803,109.037
1398163466803,109.139
1398163526803,109.432
1398163586803,109.037
1398163646803,109.389
1398163706803,109.067
1398163766803,109.344
1398163826803,108.854
1398163886803,109.028
1398163946803,109.466
1398164006803,109.360
1398164066803,109.061
1398164126803,109.421
1398164186803,108.874
1398164246803,109.302
1398164306803,109.260
1398164366803,109.761
1398164426813,109.445
1398164486813,109.264
1398164546813,109.362
1398164606813,109.504
1398164666813,109.388
1398164726813,109.562
1398164786813,109.575
1398164846813,109.460
1398164906813,109.606
1398164966813,109.613
1398165026813,109.773
1398165086813,109.246
1398165146813,109.490
1398165206813,109.761
1398165266813,109.026
1398165326813,109.538
1398165386813,109.325
1398165446813,109.425
1398165506813,109.323
1398165566813,109.744
1398165626813,109.892
1398165686813,109.268
1398165746813,109.651
1398165806813,109.720
1398165866813,109.399
1398165926813,109.694
1398165986813,109.116
1398166046813,109.835
1398166106813,109.874
1398166166813,109.352
1398166226813,109.752
1398166286813,109.645
1398166346813,109.991
1398166406813,110.311
1398166466813,110.662
1398166526813,109.840
1398166586813,110.223
1398166646813,110.256
1398166706813,110.544
1398166766813,110.328
1398166826813,109.954
1398166886813,110.177
1398166946813,110.456
1398167006813,110.314
1398167066813,110.599
1398167126813,110.730
1398167186813,110.181
1398167246813,110.406
1398167306813,110.478
1398167366813,110.239
1398167426813,110.526
1398167486813,110.648
1398167546813,110.601
1398167606813,110.367
1398167666813,110.531
1398167726813,111.005
1398167786813,110.916
1398167846813,110.280
1398167906813,110.206
1398167966813,110.653
1398168026823,110.474
1398168086823,110.350
1398168146823,110.652
1398168206823,110.560
1398168266823,110.083
1398168326823,110.161
1398168386823,110.622
1398168446823,110.722
1398168506823,110.665
1398168566823,110.035
1398168626823,110.736
1398168686823,110.898
1398168746823,111.141
1398168806823,110.928
1398168866823,111.135
1398168926823,110.189
1398168986823,111.273
1398169046823,110.813
1398169106823,111.382
1398169166823,111.051
1398169226823,110.751
1398169286823,110.504
1398169346823,110.870
1398169406823,111.427
1398169466823,110.502
1398169526823,110.918
1398169586823,110.827
1398169646823,111.284
1398169706823,111.220
1398169766823,110.794
1398169826823,111.174
1398169886823,111.453
1398169946823,111.341
1398170006823,111.190
1398170066823,111.170
1398170126823,111.208
1398170186823,110.666
1398170246823,111.073
1398170306823,111.033
1398170366823,111.799
1398170426823,111.631
1398170486823,111.376
1398170546823,111.013
1398170606823,111.466
1398170666823,111.486
1398170726823,111.619
1398170786823,111.456
1398170846823,111.499
1398170906823,112.198
1398170966823,111.603
1398171026823,111.593
1398171086823,111.462
1398171146823,111.360
1398171206823,112.390
1398171266823,111.737
1398171326823,111.509
1398171386823,111.825
1398171446823,111.922
1398171506823,111.650
1398171566823,111.544
1398171626833,111.802
1398171686833,111.785
1398171746833,111.643
1398171806833,111.754
1398171866833,112.267
1398171926833,112.510
1398171986833,111.657
1398172046833,112.200
1398172106833,111.992
1398172166833,112.707
1398172226833,112.956
1398172286833,112.638
1398172346833,112.120
1398172406833,112.437
1398172466833,112.284
1398172526833,112.129
1398172586833,111.908
1398172646833,112.607
1398172706833,112.148
1398172766833,112.080
1398172826833,112.106
1398172886833,112.407
1398172946833,112.312
1398173006833,112.651
1398173066833,112.669
1398173126833,112.755
1398173186833,112.244
1398173246833,112.979
1398173306833,112.750
1398173366833,112.824
1398173426833,112.881
1398173486833,112.744
1398173546833,112.690
1398173606833,113.019
1398173666833,113.170
1398173726833,112.941
1398173786833,113.041
1398173846833,112.477
1398173906833,112.679
1398173966833,113.050
1398174026833,112.272
1398174086833,112.949
1398174146833,113.415
1398174206833,113.128
1398174266833,112.988
1398174326833,112.983
1398174386833,113.078
1398174446833,112.876
1398174506833,113.415
1398174566833,113.379
1398174626833,113.185
1398174686833,112.832
1398174746833,113.400
1398174806833,113.386
1398174866833,113.484
1398174926833,113.485
1398174986833,112.956
1398175046833,113.852
1398175106833,113.116
1398175166833,113.283
1398175226842,113.216
1398175286842,113.735
1398175346842,113.789
1398175406842,113.443
1398175466842,113.616
1398175526842,113.286
1398175586842,113.853
1398175646842,113.372
1398175706842,113.017
1398175766842,113.959
1398175826842,113.674
1398175886842,113.646
1398175946842,113.590
1398176006842,113.571
1398176066842,113.385
1398176126842,113.581
1398176186842,113.504
1398176246842,114.102
1398176306842,113.250
1398176366842,113.449
1398176426842,113.190
1398176486842,113.023
1398176546842,113.389
1398176606842,113.702
1398176666842,113.802
1398176726842,113.299
1398176786842,113.697
1398176846842,113.539
1398176906842,114.182
1398176966842,113.705
1398177026842,113.762
1398177086842,114.294
1398177146842,114.218
1398177206842,113.597
1398177266842,113.506
1398177326842,114.256
1398177386842,114.620
1398177446842,113.953
1398177506842,113.988
1398177566842,113.933
1398177626842,113.700
1398177686842,114.438
1398177746842,114.004
1398177806842,114.065
1398177866842,113.991
1398177926842,114.325
1398177986842,113.913
1398178046842,113.737
1398178106842,113.934
1398178166842,114.397
1398178226842,114.074
1398178286842,114.570
1398178346842,114.615
1398178406842,114.555
1398178466842,114.237
1398178526842,114.556
1398178586842,114.541
1398178646842,114.285
1398178706842,114.114
1398178766842,115.065
1398178826852,114.631
1398178886852,114.722
1398178946852,114.434
1398179006852,115.185
1398179066852,114.482
1398179126852,114.408
1398179186852,114.485
1398179246852,114.767
1398179306852,114.558
1398179366852,114.613
1398179426852,114.340
1398179486852,114.448
1398179546852,114.115
1398179606852,114.372
1398179666852,114.544
1398179726852,114.139
1398179786852,114.249
1398179846852,114.351
1398179906852,114.671
1398179966852,114.263
1398180026852,114.773
1398180086852,114.951
1398180146852,114.508
1398180206852,114.692
1398180266852,114.555
1398180326852,114.843
1398180386852,114.784
1398180446852,114.916
1398180506852,114.280
1398180566852,114.913
1398180626852,114.256
1398180686852,114.477
1398180746852,114.998
1398180806852,114.678
1398180866852,114.803
1398180926852,114.170
1398180986852,114.951
1398181046852,114.980
1398181106852,114.416
1398181166852,114.730
1398181226852,114.687
1398181286852,114.524
1398181346852,114.398
1398181406852,114.576
1398181466852,114.781
1398181526852,114.404
1398181586852,114.971
1398181646852,114.996
1398181706852,114.885
1398181766852,114.763
1398181826852,114.322
1398181886852,114.711
1398181946852,114.704
1398182006852,114.896
1398182066852,114.908
1398182126852,114.573
1398182186852,114.427
1398182246852,114.509
1398182306852,114.395
1398182366852,114.366
1398182426861,114.660
1398182486861,114.318
1398182546861,114.520
1398182606861,114.667
1398182666861,114.518
1398182726861,114.552
1398182786861,114.751
1398182846861,114.847
1398182906861,114.491
1398182966861,115.045
1398183026861,113.950
1398183086861,114.610
1398183146861,114.221
1398183206861,114.262
1398183266861,114.577
1398183326861,114.405
1398183386861,114.362
1398183446861,114.214
1398183506861,114.163
1398183566861,114.363
1398183626861,113.688
1398183686861,114.303
1398183746861,114.455
1398183806861,113.910
1398183866861,114.313
1398183926861,113.925
1398183986861,114.117
1398184046861,113.969
1398184106861,113.523
1398184166861,113.712
1398184226861,114.267
1398184286861,114.370
1398184346861,113.878
1398184406861,114.178
1398184466861,113.986
1398184526861,113.795
1398184586861,113.660
1398184646861,114.111
1398184706861,113.749
1398184766861,114.493
1398184826861,114.328
1398184886861,114.379
1398184946861,114.068
1398185006861,114.206
1398185066861,114.117
1398185126861,113.707
1398185186861,114.298
1398185246861,114.456
1398185306861,114.011
1398185366861,114.247
1398185426861,113.605
1398185486861,113.879
1398185546861,113.819
1398185606861,113.799
1398185666861,113.992
1398185726861,113.670
1398185786861,114.158
1398185846861,113.505
1398185906861,113.476
1398185966861,113.719
1398186026871,113.845
1398186086871,113.774
1398186146871,113.767
1398186206871,113.667
1398186266871,113.886
1398186326871,113.104
1398186386871,113.476
1398186446871,113.518
1398186506871,113.393
1398186566871,113.259
1398186626871,112.973
1398186686871,113.464
1398186746871,113.328
1398186806871,113.485
1398186866871,113.015
1398186926871,112.993
1398186986871,113.144
1398187046871,113.692
1398187106871,113.366
1398187166871,113.102
1398187226871,113.291
1398187286871,113.143
1398187346871,113.252
1398187406871,113.037
1398187466871,113.514
1398187526871,112.611
1398187586871,113.323
1398187646871,113.479
1398187706871,112.674
1398187766871,112.785
1398187826871,112.710
1398187886871,112.678
1398187946871,112.846
1398188006871,112.470
1398188066871,112.747
1398188126871,112.269
1398188186871,113.129
1398188246871,112.428
1398188306871,112.418
1398188366871,112.614
1398188426871,112.541
1398188486871,112.704
1398188546871,111.998
1398188606871,112.199
1398188666871,112.685
1398188726871,112.571
1398188786871,112.527
1398188846871,112.336
1398188906871,112.055
1398188966871,112.581
1398189026871,112.198
1398189086871,112.280
1398189146871,112.059
1398189206871,111.985
1398189266871,112.338
1398189326871,111.947
1398189386871,112.196
1398189446871,112.119
1398189506871,112.048
1398189566871,112.267
1398189626881,112.288
1398189686881,112.261
1398189746881,112.287
1398189806881,112.127
1398189866881,112.063
1398189926881,111.991
1398189986881,111.901
1398190046881,111.949
1398190106881,111.440
1398190166881,111.402
1398190226881,111.836
1398190286881,112.217
1398190346881,111.485
1398190406881,111.779
1398190466881,111.080
1398190526881,111.368
1398190586881,112.272
1398190646881,111.980